sat.trackr.live / text

‹ back to catalog

KUIPER-00137

NORAD 65963 · 2025-228S

PAYLOAD ACTIVE UNKNOWN

§ Identity

Operator
Country
US
Launch date
2025-10-14
Launch site
AFETR
Launch vehicle
Mass (kg)
RCS (m²)

External: N2YO · Heavens-Above · Gunter

§ Orbital elements

Epoch: 2026-09-20T03:07:07.485600Z

Period
97.30 min
Inclination
51.9039°
Eccentricity
0.0001053
Mean motion
14.79930885 rev/d
Perigee alt
628.8 km
Apogee alt
630.3 km
Semi-major
7,007.7 km
B*
1.3764e-4
RAAN
205.8509°
Arg perigee
59.9747°
Mean anomaly
300.1320°
Rev number
5,223

§ Raw data

KUIPER-001371 65963U 25228S   26263.12994775  .00000828  00000+0  13764-3 0  99922 65963  51.9039 205.8509 0001053  59.9747 300.1320 14.79930885 52232

JSON: /api/v1/satellites/65963 · /tle

For live sub-satellite position, see the globe view (requires WebGL).

§ Visibility from observer

Set your observer location to see the next 7 days of passes ≥ 10°. The values pass through the URL so the page stays shareable.

No JS? Fill the form by hand. The geolocation button needs JavaScript.